Location: Newark
(46.1292°N, 1.0086°W)
Time: 21:27:33
(UTC+00:00)

Transit 2A Rocket - Visible Passes

Search period start: 21 November 2019 00:00
Search period end: 01 December 2019 00:00
Orbit: 594 x 909 km, 66.7° (Epoch: 20 November)

Date Brightness Start Highest point End Pass type
(mag) Time Alt. Az. Time Alt. Az. Time Alt. Az.
21 Nov 6.2 04:52:48 20° N 04:54:54 29° NE 04:58:50 10° ESE visible
21 Nov 5.3 06:33:26 10° NW 06:37:29 37° WSW 06:41:43 10° S visible
22 Nov 6.8 04:11:47 19° NE 04:12:06 19° NE 04:15:19 10° E visible
22 Nov 4.5 05:51:43 17° NW 05:55:02 68° WSW 05:59:37 10° SSE visible
23 Nov 7.6 03:30:49 11° ENE 03:30:49 11° ENE 03:31:18 10° ENE visible
23 Nov 4.8 05:10:46 35° NNW 05:12:32 68° NE 05:17:05 10° SE visible
24 Nov 5.7 04:29:52 40° NE 04:29:56 40° NE 04:34:12 10° ESE visible
24 Nov 5.7 06:09:48 16° WNW 06:12:17 26° WSW 06:16:06 10° SSW visible
25 Nov 7.1 03:49:03 19° E 03:49:03 19° E 03:50:57 10° E visible
25 Nov 4.9 05:29:00 40° W 05:29:54 46° WSW 05:34:20 10° S visible
26 Nov 4.9 04:48:15 60° SSE 04:48:15 60° SSE 04:52:04 10° SSE visible
27 Nov 6.7 04:07:34 23° SE 04:07:34 23° SE 04:09:25 10° SE visible
27 Nov 6.2 05:47:31 18° WSW 05:47:31 18° WSW 05:50:12 10° SSW visible
28 Nov 6.3 05:06:54 21° SSW 05:06:54 21° SSW 05:08:52 10° S visible
28 Nov 7.2 19:37:26 10° SW 19:38:06 14° SW 19:38:06 14° SW visible
29 Nov 7.1 04:26:20 13° SSE 04:26:20 13° SSE 04:26:53 10° SSE visible
29 Nov 6.0 18:55:03 10° SSW 18:57:27 28° S 18:57:27 28° S visible
30 Nov 5.5 18:13:05 10° S 18:16:43 31° SE 18:16:43 31° SE visible
30 Nov 7.3 19:55:31 10° WSW 19:56:39 16° WSW 19:56:39 16° WSW visible
